Location: ???????
(55.4362°N, 38.1183°E)
Time: 03:44:47
(UTC+00:00)

Terra - Pass Details

Date: 17 June 2021
Orbit: 701 x 703 km, 98.2° (Epoch: 26 July)

Event Time Altitude Azimuth Distance (km) Brightness Sun altitude
Exits shadow 20:10:09 - 201° (SSW) 2,612 4.3 -9.4°
Reaches altitude 10° 20:11:25 10° 209° (SSW) 2,171 3.9 -9.5°
Maximum altitude 20:15:29 28° 267° (W) 1,328 3.4 -9.6°
Drops below altitude 10° 20:19:35 10° 326° (NW) 2,185 5.7 -9.8°
Sets 20:22:09 0° 338° (NNW) 3,108 7.4 -9.9°
